Location: Tierz
(42.1336°N, 0.3549°W)
Time: 22:41:20
(UTC+00:00)

Atlas Centaur 2 - Pass Details

Date: 29 October 2020
Orbit: 459 x 1309 km, 30.4° (Epoch: 04 December)

Event Time Altitude Azimuth Distance (km) Brightness Sun altitude
Rises 17:10:38 0° 234° (SW) 3,969 7.3 -3.0°
Reaches altitude 10° 17:13:39 10° 224° (SW) 3,113 6.2 -3.5°
Maximum altitude 17:20:25 31° 166° (SSE) 2,074 4.3 -4.7°
Drops below altitude 10° 17:27:37 10° 109° (ESE) 3,320 4.8 -6.0°
Enters shadow 17:29:48 - 102° (ESE) 3,936 5.1 -6.4°
